sat.trackr.live / text

‹ back to catalog

STARLINK-30481

NORAD 57899 · 2023-146J

PAYLOAD ACTIVE UNKNOWN

§ Identity

Operator
Country
US
Launch date
2023-09-20
Launch site
AFETR
Launch vehicle
Mass (kg)
RCS (m²)

Purposes: comms

External: N2YO · Heavens-Above · Gunter

§ Orbital elements

Epoch: 2026-05-24T23:40:45.302016Z

Period
94.27 min
Inclination
43.0050°
Eccentricity
0.0001856
Mean motion
15.27580336 rev/d
Perigee alt
481.8 km
Apogee alt
484.3 km
Semi-major
6,861.2 km
B*
4.7586e-5
RAAN
243.4250°
Arg perigee
257.0613°
Mean anomaly
103.0031°
Rev number
14,872

§ Raw data

STARLINK-304811 57899U 23146J   26144.98663544  .00001047  00000+0  47586-4 0  99912 57899  43.0050 243.4250 0001856 257.0613 103.0031 15.27580336148726

JSON: /api/v1/satellites/57899 · /tle

For live sub-satellite position, see the globe view (requires WebGL).

§ Visibility from observer

Set your observer location to see the next 7 days of passes ≥ 10°. The values pass through the URL so the page stays shareable.

No JS? Fill the form by hand. The geolocation button needs JavaScript.